Hourly Data Report for May 03, 2020

TORONTO CITY
ONTARIO
Current Station Operator: ECCC - MSC

43°40'00.000" N
79°24'00.000" W
112.50 m
6158355
71508
XTO

Download Data

Hourly Data (May 2020)
Hourly Data Report for May 3, 2020
TIME
LST
Temp Definition
°C
Dew Point Definition
°C
Rel Hum Definition
%
Precip. Amount Definition
mm

Wind Dir Definition
10's deg

Wind Spd Definition
km/h
Visibility Definition
km
Stn Press Definition
kPa
Hmdx Definition


Wind Chill Definition


Weather Definition


00:00 9.5 4.4 71 0.0       99.28     LegendNANA
01:00 13.2 6.4 63 0.0       99.27     LegendNANA
02:00 12.1 5.7 65 0.0       99.25     LegendNANA
03:00 10.6 5.8 72 0.0       99.27     LegendNANA
04:00 10.4 5.7 73 0.0       99.35     LegendNANA
05:00 9.5 5.5 76 0.0       99.38     LegendNANA
06:00 9.2 5.4 77 0.0       99.42     LegendNANA
07:00 12.9 5.6 61 0.0       99.47     LegendNANA
08:00 15.0 4.7 50 0.0       99.48     LegendNANA
09:00 17.4 5.5 45 0.0       99.40     LegendNANA
10:00 18.9 6.0 43 0.0       99.37     LegendNANA
11:00 20.7 8.2 45 0.2       99.35     LegendNANA
12:00 21.0 6.7 40 0.2       99.32     LegendNANA
13:00 21.2 4.3 33 0.2       99.30     LegendNANA
14:00 20.8 1.3 27 0.2       99.29     LegendNANA
15:00 21.1 0.4 25 0.0       99.28     LegendNANA
16:00 19.6 -0.1 27 0.5       99.30     LegendNANA
17:00 18.1 -0.4 29 0.0       99.36     LegendNANA
18:00 18.0 0.0 30 0.0       99.35     LegendNANA
19:00 16.7 0.8 34 0.0       99.36     LegendNANA
20:00 14.2 -0.1 37 0.0       99.41     LegendNANA
21:00 13.1 -0.2 40 0.0       99.44     LegendNANA
22:00 12.7 0.2 42 0.0       99.43     LegendNANA
23:00 12.3 0.4 44 0.0       99.45     LegendNANA

Notes on Data Quality.

Legend

  • E = Estimated
  • M = Missing
  • NA = Not Available*
  • [empty] = Indicates an unobserved value
Date modified: